,,PA_Meas_PMT16A,,PR_Meas_QMR101_102,,RH_Meas_QMH101,,SR_Meas_QMS101,,TA_Meas_QMH101,,GenWind,,GenWind,
time,status,PA,status,PR,status,RH,status,SR,status,TA,status,DirAvg,status,SpdAvg,
2014-08-05, 07:14:04,VALID,918.242,VALID,0,VALID,87.6235,VALID,40.3979,VALID,18.9048,VALID,124,VALID,0,
2014-08-05, 07:15:04,VALID,918.279,VALID,0,VALID,87.3491,VALID,41.15,VALID,18.9842,VALID,124,VALID,0,
2014-08-05, 07:16:04,VALID,918.301,VALID,0,VALID,86.5639,VALID,41.9021,VALID,19.0203,VALID,124,VALID,0,
2014-08-05, 07:17:04,VALID,918.352,VALID,0,VALID,85.1917,VALID,42.1169,VALID,19.0983,VALID,124,VALID,0,
2014-08-05, 07:18:04,VALID,918.372,VALID,0,VALID,84.3912,VALID,42.2244,VALID,19.2543,VALID,117,VALID,0,
2014-08-05, 07:19:04,VALID,918.359,VALID,0,VALID,83.8423,VALID,42.5467,VALID,19.3728,VALID,113,VALID,0,
2014-08-05, 07:20:04,VALID,918.387,VALID,0,VALID,83.1638,VALID,42.869,VALID,19.4313,VALID,113,VALID,0,
2014-08-05, 07:21:04,VALID,918.406,VALID,0,VALID,82.8055,VALID,43.7285,VALID,19.5078,VALID,113,VALID,0,
2014-08-05, 07:22:04,VALID,918.398,VALID,0,VALID,81.5705,VALID,44.6955,VALID,19.6053,VALID,113,VALID,0,
2014-08-05, 07:23:04,VALID,918.43,VALID,0,VALID,81.9365,VALID,45.8774,VALID,19.7028,VALID,114,VALID,0,
2014-08-05, 07:24:04,VALID,918.454,VALID,0,VALID,82.432,VALID,47.2741,VALID,19.7223,VALID,113,VALID,0,
2014-08-05, 07:25:04,VALID,918.48,VALID,0,VALID,83.3239,VALID,48.6708,VALID,19.7433,VALID,113,VALID,0,
2014-08-05, 07:26:04,VALID,918.494,VALID,0,VALID,83.3773,VALID,49.8527,VALID,19.7223,VALID,114,VALID,0,
2014-08-05, 07:27:04,VALID,918.529,VALID,0,VALID,83.8652,VALID,50.7122,VALID,19.7628,VALID,113,VALID,0,
2014-08-05, 07:28:04,VALID,918.573,VALID,0,VALID,84.3531,VALID,51.2494,VALID,19.7808,VALID,114,VALID,0,
2014-08-05, 07:29:04,VALID,918.622,VALID,0,VALID,84.4979,VALID,51.2494,VALID,19.8213,VALID,113,VALID,0,
2014-08-05, 07:30:04,VALID,918.641,VALID,0,VALID,85.2069,VALID,51.5718,VALID,19.8798,VALID,113,VALID,0,
2014-08-05, 07:31:04,VALID,918.657,VALID,0,VALID,86.2208,VALID,52.2164,VALID,19.9383,VALID,114,VALID,0,
2014-08-05, 07:32:04,VALID,918.682,VALID,0,VALID,86.48,VALID,53.1834,VALID,19.9578,VALID,114,VALID,0,
2014-08-05, 07:33:04,VALID,918.722,VALID,0,VALID,86.7621,VALID,54.6875,VALID,19.9968,VALID,114,VALID,0,
2014-08-05, 07:34:04,VALID,918.727,VALID,0,VALID,87.3567,VALID,56.7289,VALID,20.0148,VALID,113,VALID,0,
2014-08-05, 07:35:04,VALID,918.745,VALID,0,VALID,88.3554,VALID,58.7703,VALID,20.0358,VALID,113,VALID,0,
2014-08-05, 07:36:04,VALID,918.736,VALID,0,VALID,87.837,VALID,60.8117,VALID,20.0163,VALID,113,VALID,0,
2014-08-05, 07:37:04,VALID,918.724,VALID,0,VALID,87.0061,VALID,62.6382,VALID,19.9578,VALID,113,VALID,0,
2014-08-05, 07:38:04,VALID,918.728,VALID,0,VALID,86.4419,VALID,64.2498,VALID,19.9563,VALID,113,VALID,0,
2014-08-05, 07:39:04,VALID,918.734,VALID,0,VALID,85.1383,VALID,65.3242,VALID,19.9383,VALID,114,VALID,0,
2014-08-05, 07:40:04,VALID,918.729,VALID,0,VALID,84.254,VALID,66.1837,VALID,19.8978,VALID,114,VALID,0,
2014-08-05, 07:41:04,VALID,918.75,VALID,0,VALID,83.2172,VALID,67.3656,VALID,19.8993,VALID,114,VALID,0,
2014-08-05, 07:42:04,VALID,918.742,VALID,0,VALID,84.9935,VALID,68.9772,VALID,19.9578,VALID,114,VALID,0,
2014-08-05, 07:43:04,VALID,918.752,VALID,0,VALID,85.6338,VALID,71.0186,VALID,19.9563,VALID,113,VALID,0,
2014-08-05, 07:44:04,VALID,918.749,VALID,0,VALID,84.7571,VALID,73.1674,VALID,19.9758,VALID,113,VALID,0,
2014-08-05, 07:45:04,VALID,918.744,VALID,0,VALID,82.9123,VALID,75.5311,VALID,19.9368,VALID,113,VALID,0,
2014-08-05, 07:46:04,VALID,918.75,VALID,0,VALID,83.545,VALID,78.0023,VALID,19.9368,VALID,114,VALID,0,
2014-08-05, 07:47:04,VALID,918.719,VALID,0,VALID,84.437,VALID,80.7957,VALID,19.9173,VALID,113,VALID,0,
2014-08-05, 07:48:04,VALID,918.77,VALID,0,VALID,84.6733,VALID,83.5892,VALID,19.8993,VALID,114,VALID,0,
2014-08-05, 07:49:04,VALID,918.773,VALID,0,VALID,85.2145,VALID,86.8125,VALID,19.8783,VALID,113,VALID,0,
2014-08-05, 07:50:04,VALID,918.781,VALID,0,VALID,85.9235,VALID,90.1431,VALID,19.9368,VALID,113,VALID,0,
2014-08-05, 07:51:04,VALID,918.783,VALID,0,VALID,86.2056,VALID,94.011,VALID,19.9953,VALID,114,VALID,0,
2014-08-05, 07:52:04,VALID,918.779,VALID,0,VALID,86.076,VALID,98.4161,VALID,20.0343,VALID,114,VALID,0,
2014-08-05, 07:53:04,VALID,918.785,VALID,0,VALID,84.2464,VALID,102.499,VALID,20.0538,VALID,114,VALID,0,
2014-08-05, 07:54:04,VALID,918.786,VALID,0,VALID,83.85,VALID,106.689,VALID,20.0733,VALID,113,VALID,0,
2014-08-05, 07:55:04,VALID,918.787,VALID,0,VALID,83.8728,VALID,110.987,VALID,20.1318,VALID,113,VALID,0,
2014-08-05, 07:56:04,VALID,918.78,VALID,0,VALID,84.1701,VALID,115.499,VALID,20.1708,VALID,113,VALID,0,
2014-08-05, 07:57:04,VALID,918.791,VALID,0,VALID,84.6885,VALID,120.549,VALID,20.2699,VALID,114,VALID,0,
2014-08-05, 07:58:04,VALID,918.809,VALID,0,VALID,85.3518,VALID,125.921,VALID,20.2879,VALID,113,VALID,0,
2014-08-05, 07:59:04,VALID,918.792,VALID,0,VALID,85.1383,VALID,131.83,VALID,20.3464,VALID,114,VALID,0,
2014-08-05, 08:00:04,VALID,918.838,VALID,0,VALID,84.1778,VALID,138.492,VALID,20.4259,VALID,114,VALID,0,
2014-08-05, 08:01:04,VALID,918.857,VALID,0,VALID,83.8576,VALID,145.905,VALID,20.4634,VALID,113,VALID,0,
2014-08-05, 08:02:04,VALID,918.902,VALID,0,VALID,82.3786,VALID,153.319,VALID,20.5219,VALID,113,VALID,0,
2014-08-05, 08:03:04,VALID,918.896,VALID,0,VALID,81.3647,VALID,160.947,VALID,20.5999,VALID,111,VALID,0,
2014-08-05, 08:04:04,VALID,918.879,VALID,0,VALID,81.9593,VALID,169.005,VALID,20.639,VALID,44,VALID,0,
2014-08-05, 08:05:04,VALID,918.92,VALID,0,VALID,81.319,VALID,175.774,VALID,20.6585,VALID,44,VALID,0.123047,
2014-08-05, 08:06:04,VALID,918.947,VALID,0,VALID,81.1818,VALID,180.071,VALID,20.7365,VALID,35,VALID,0.755078,
2014-08-05, 08:07:04,VALID,918.924,VALID,0,VALID,80.2593,VALID,183.939,VALID,20.717,VALID,24,VALID,0.597656,
2014-08-05, 08:08:04,VALID,918.931,VALID,0,VALID,80.3737,VALID,188.452,VALID,20.678,VALID,18,VALID,0.1375,
2014-08-05, 08:09:04,VALID,918.933,VALID,0,VALID,81.9822,VALID,196.51,VALID,20.717,VALID,18,VALID,0,
2014-08-05, 08:10:04,VALID,918.973,VALID,0,VALID,82.5768,VALID,203.279,VALID,20.756,VALID,18,VALID,0,
2014-08-05, 08:11:04,VALID,919.023,VALID,0,VALID,82.8132,VALID,220.577,VALID,20.834,VALID,18,VALID,0,
2014-08-05, 08:12:04,VALID,919.057,VALID,0,VALID,81.7154,VALID,286.438,VALID,20.873,VALID,18,VALID,0,
2014-08-05, 08:13:04,VALID,919.047,VALID,0,VALID,81.8526,VALID,255.71,VALID,20.8145,VALID,18,VALID,0,
2014-08-05, 08:14:04,VALID,919.065,VALID,0,VALID,81.1055,VALID,247.007,VALID,20.7544,VALID,18,VALID,0,
2014-08-05, 08:15:04,VALID,919.073,VALID,0,VALID,81.0369,VALID,242.924,VALID,20.8324,VALID,18,VALID,0,
2014-08-05, 08:16:04,VALID,919.053,VALID,0,VALID,81.4562,VALID,299.976,VALID,20.969,VALID,18,VALID,0,
2014-08-05, 08:17:04,VALID,919.086,VALID,0,VALID,81.4257,VALID,311.042,VALID,21.1461,VALID,18,VALID,0,
2014-08-05, 08:18:04,VALID,919.069,VALID,0,VALID,77.9342,VALID,288.909,VALID,21.2226,VALID,31,VALID,0.441406,
2014-08-05, 08:19:04,VALID,919.088,VALID,0,VALID,78.2544,VALID,255.173,VALID,21.3786,VALID,9,VALID,0.0730469,
2014-08-05, 08:20:04,VALID,919.113,VALID,0,VALID,78.6813,VALID,234.222,VALID,21.5347,VALID,20,VALID,0.0078125,
2014-08-05, 08:21:04,VALID,919.106,VALID,0,VALID,77.8884,VALID,241.635,VALID,21.7103,VALID,354,VALID,0,
2014-08-05, 08:22:04,VALID,919.141,VALID,0,VALID,76.7678,VALID,235.833,VALID,21.8079,VALID,352,VALID,0,
2014-08-05, 08:23:04,VALID,919.118,VALID,0,VALID,76.9736,VALID,226.808,VALID,21.8469,VALID,345,VALID,0,
2014-08-05, 08:24:04,VALID,919.139,VALID,0,VALID,77.3014,VALID,230.139,VALID,21.9249,INVALID,360,VALID,0,
2014-08-05, 08:25:04,VALID,919.15,VALID,0,VALID,76.6535,VALID,237.552,VALID,22.0225,VALID,346,VALID,0,
2014-08-05, 08:26:04,VALID,919.156,VALID,0,VALID,75.5252,VALID,253.991,VALID,22.0598,VALID,22,VALID,0.459375,
2014-08-05, 08:27:04,VALID,919.164,VALID,0,VALID,73.6422,VALID,383.243,VALID,22.1396,VALID,10,VALID,0.171484,
2014-08-05, 08:28:04,VALID,919.185,VALID,0,VALID,74.2673,VALID,372.821,VALID,22.2176,VALID,11,VALID,0.215234,
2014-08-05, 08:29:04,VALID,919.188,VALID,0,VALID,72.9637,VALID,373.68,VALID,22.2762,VALID,359,VALID,0.398438,
2014-08-05, 08:30:04,VALID,919.169,VALID,0,VALID,75.609,VALID,306.959,VALID,22.3542,VALID,15,VALID,0.0449219,
2014-08-05, 08:31:04,VALID,919.193,VALID,0,VALID,76.4857,VALID,328.125,VALID,22.4696,VALID,15,VALID,0,
2014-08-05, 08:32:04,VALID,919.168,VALID,0,VALID,76.0283,VALID,382.598,VALID,22.5867,VALID,360,VALID,0,
2014-08-05, 08:33:04,VALID,919.169,VALID,0,VALID,73.1695,VALID,372.713,VALID,22.686,VALID,339,VALID,0.273438,
2014-08-05, 08:34:04,VALID,919.19,VALID,0,VALID,72.3462,VALID,319.315,VALID,22.7233,VALID,339,VALID,0.147656,
2014-08-05, 08:35:04,VALID,919.181,VALID,0,VALID,70.7072,VALID,292.885,VALID,22.7641,VALID,16,VALID,0.101563,
2014-08-05, 08:36:04,VALID,919.165,VALID,0,VALID,72.8036,VALID,250.23,VALID,22.8421,VALID,351,VALID,0.743359,
2014-08-05, 08:37:04,VALID,919.181,VALID,0,VALID,71.3323,VALID,232.825,VALID,22.725,VALID,18,VALID,0.0148437,
2014-08-05, 08:38:04,VALID,919.176,VALID,0,VALID,74.6332,VALID,225.304,VALID,22.5867,VALID,311,VALID,0,
2014-08-05, 08:39:04,VALID,919.188,VALID,0,VALID,75.6472,VALID,221.329,VALID,22.3542,VALID,311,VALID,0,
2014-08-05, 08:40:04,VALID,919.178,VALID,0,VALID,69.0453,VALID,220.039,VALID,22.2567,VALID,311,VALID,0,
2014-08-05, 08:41:04,VALID,919.188,VALID,0,VALID,68.4583,VALID,220.792,VALID,22.2567,VALID,311,VALID,0,
2014-08-05, 08:42:04,VALID,919.204,VALID,0,VALID,70.3489,VALID,222.081,VALID,22.2762,VALID,311,VALID,0,
2014-08-05, 08:43:04,VALID,919.221,VALID,0,VALID,70.8825,VALID,222.726,VALID,22.2762,VALID,311,VALID,0,
2014-08-05, 08:44:04,VALID,919.226,VALID,0,VALID,73.5355,VALID,224.122,VALID,22.3542,VALID,328,VALID,0,
2014-08-05, 08:45:04,VALID,919.21,VALID,0,VALID,73.1619,VALID,226.271,VALID,22.3737,VALID,346,VALID,0,
2014-08-05, 08:46:04,VALID,919.216,VALID,0,VALID,72.5978,VALID,229.279,VALID,22.3152,VALID,345,VALID,0,
2014-08-05, 08:47:04,VALID,919.225,VALID,0,VALID,71.6296,VALID,234.651,VALID,22.2762,VALID,346,VALID,0,
2014-08-05, 08:48:04,VALID,919.264,VALID,0,VALID,72.6359,VALID,240.776,VALID,22.2567,INVALID,360,VALID,0.021875,
2014-08-05, 08:49:04,VALID,919.277,VALID,0,VALID,74.9611,VALID,247.652,VALID,22.3347,VALID,346,VALID,0.0117188,
2014-08-05, 08:50:04,VALID,919.27,VALID,0,VALID,74.1149,VALID,253.454,VALID,22.3152,VALID,324,VALID,0,
2014-08-05, 08:51:04,VALID,919.26,VALID,0,VALID,76.2113,VALID,257.751,VALID,22.3737,VALID,327,VALID,0,
2014-08-05, 08:52:04,VALID,919.239,VALID,0,VALID,71.6906,VALID,259.685,VALID,22.3525,VALID,358,VALID,0.428125,
2014-08-05, 08:53:04,VALID,919.281,VALID,0,VALID,71.7363,VALID,261.297,VALID,22.3916,VALID,357,VALID,0,
2014-08-05, 08:54:04,VALID,919.271,VALID,0,VALID,72.209,VALID,270.107,VALID,22.4518,VALID,355,VALID,0,
2014-08-05, 08:55:04,VALID,919.24,VALID,0,VALID,70.4709,VALID,289.124,VALID,22.4501,VALID,347,VALID,0.084375,
2014-08-05, 08:56:04,VALID,919.254,VALID,0,VALID,70.509,VALID,309.968,VALID,22.4696,VALID,6,VALID,0.699609,
2014-08-05, 08:57:04,VALID,919.263,VALID,0,VALID,70.0135,VALID,324.795,VALID,22.4696,VALID,329,VALID,0.114844,
2014-08-05, 08:58:04,VALID,919.285,VALID,0,VALID,71.9041,VALID,266.561,VALID,22.5086,VALID,303,VALID,0,
2014-08-05, 08:59:04,VALID,919.256,VALID,0,VALID,73.3982,VALID,247.867,VALID,22.5281,VALID,301,VALID,0,
2014-08-05, 09:00:04,VALID,919.293,VALID,0,VALID,75.6014,VALID,237.982,VALID,22.5281,VALID,304,VALID,0,
2014-08-05, 09:01:04,VALID,919.323,VALID,0,VALID,73.848,VALID,236.478,VALID,22.5672,VALID,314,VALID,0,
2014-08-05, 09:02:04,VALID,919.351,VALID,0,VALID,71.5458,VALID,236.156,VALID,22.6665,VALID,314,VALID,0,
2014-08-05, 09:03:04,VALID,919.402,VALID,0,VALID,73.9471,VALID,236.908,VALID,22.725,VALID,301,VALID,0,
2014-08-05, 09:04:04,VALID,919.393,VALID,0,VALID,72.4606,VALID,237.552,VALID,22.585,VALID,301,VALID,0,
2014-08-05, 09:05:04,VALID,919.402,VALID,0,VALID,73.0476,VALID,238.09,VALID,22.5672,VALID,300,VALID,0,
2014-08-05, 09:06:04,VALID,919.438,VALID,0,VALID,73.566,VALID,238.842,VALID,22.6647,VALID,301,VALID,0,
2014-08-05, 09:07:04,VALID,919.444,VALID,0,VALID,74.8772,VALID,240.668,VALID,22.7428,VALID,301,VALID,0,
2014-08-05, 09:08:04,VALID,919.418,VALID,0,VALID,70.4099,VALID,243.784,VALID,22.7038,VALID,301,VALID,0,
2014-08-05, 09:09:04,VALID,919.428,VALID,0,VALID,69.8152,VALID,246.577,VALID,22.7038,VALID,301,VALID,0,
2014-08-05, 09:10:04,VALID,919.441,VALID,0,VALID,72.1251,VALID,246.685,VALID,22.6647,VALID,301,VALID,0,
2014-08-05, 09:11:04,VALID,919.425,VALID,0,VALID,71.5915,VALID,246.363,VALID,22.6062,VALID,301,VALID,0,
2014-08-05, 09:12:04,VALID,919.388,VALID,0,VALID,71.0045,VALID,244.858,VALID,22.6062,VALID,301,VALID,0,
2014-08-05, 09:13:04,VALID,919.377,VALID,0,VALID,69.8991,VALID,243.247,VALID,22.5477,VALID,301,VALID,0,
2014-08-05, 09:14:04,VALID,919.373,VALID,0,VALID,71.7897,VALID,241.42,VALID,22.5281,VALID,301,VALID,0,
2014-08-05, 09:15:04,VALID,919.376,VALID,0,VALID,71.8964,VALID,238.519,VALID,22.5281,VALID,302,VALID,0,
2014-08-05, 09:16:04,VALID,919.401,VALID,0,VALID,71.1112,VALID,235.296,VALID,22.6062,VALID,302,VALID,0,
2014-08-05, 09:17:04,VALID,919.358,VALID,0,VALID,70.8063,VALID,232.395,VALID,22.7428,VALID,341,VALID,0,
2014-08-05, 09:18:04,VALID,919.375,VALID,0,VALID,70.7682,VALID,229.494,VALID,22.8404,VALID,341,VALID,0,
2014-08-05, 09:19:04,VALID,919.394,VALID,0,VALID,70.6767,VALID,226.593,VALID,22.9185,VALID,340,VALID,0,
2014-08-05, 09:20:04,VALID,919.38,VALID,0,VALID,69.5865,VALID,222.94,VALID,22.9557,VALID,340,VALID,0,
2014-08-05, 09:21:04,VALID,919.383,VALID,0,VALID,69.1901,VALID,218.643,VALID,22.9948,VALID,350,VALID,0.0609375,
2014-08-05, 09:22:04,VALID,919.352,VALID,0,VALID,66.7887,VALID,216.064,VALID,23.0356,VALID,344,VALID,0,
2014-08-05, 09:23:04,VALID,919.359,VALID,0,VALID,68.382,VALID,214.56,VALID,23.0338,VALID,344,VALID,0,
2014-08-05, 09:24:04,VALID,919.33,VALID,0,VALID,69.2816,VALID,214.667,VALID,23.1136,VALID,344,VALID,0,
2014-08-05, 09:25:04,VALID,919.307,VALID,0,VALID,67.978,VALID,217.568,VALID,23.1119,VALID,349,VALID,0,
2014-08-05, 09:26:04,VALID,919.326,VALID,0,VALID,68.0085,VALID,220.147,VALID,23.1722,VALID,350,VALID,0,
2014-08-05, 09:27:04,VALID,919.289,VALID,0,VALID,69.1825,VALID,224.445,VALID,23.2893,VALID,350,VALID,0,
2014-08-05, 09:28:04,VALID,919.277,VALID,0,VALID,66.7583,VALID,230.784,VALID,23.3869,VALID,350,VALID,0,
2014-08-05, 09:29:04,VALID,919.249,VALID,0,VALID,67.6349,VALID,238.197,VALID,23.4454,VALID,350,VALID,0,
2014-08-05, 09:30:04,VALID,919.231,VALID,0,VALID,66.4991,VALID,246.577,VALID,23.4827,VALID,350,VALID,0,
2014-08-05, 09:31:04,VALID,919.204,VALID,0,VALID,66.6134,VALID,255.388,VALID,23.5626,VALID,349,VALID,0,
2014-08-05, 09:32:04,VALID,919.216,VALID,0,VALID,67.0098,VALID,262.909,VALID,23.5608,VALID,349,VALID,0,
2014-08-05, 09:33:04,VALID,919.203,VALID,0,VALID,68.3897,VALID,270.752,VALID,23.6388,VALID,349,VALID,0,
2014-08-05, 09:34:04,VALID,919.223,VALID,0,VALID,66.3085,VALID,276.876,VALID,23.5821,VALID,344,VALID,0,
2014-08-05, 09:35:04,VALID,919.232,VALID,0,VALID,69.1444,VALID,279.132,VALID,23.4224,VALID,344,VALID,0,
2014-08-05, 09:36:04,VALID,919.212,VALID,0,VALID,67.2995,VALID,277.95,VALID,23.4046,VALID,344,VALID,0,
2014-08-05, 09:37:04,VALID,919.2,VALID,0,VALID,67.7417,VALID,273.438,VALID,23.3265,VALID,344,VALID,0,
2014-08-05, 09:38:04,VALID,919.239,VALID,0,VALID,66.621,VALID,266.561,VALID,23.3478,VALID,350,VALID,0,
2014-08-05, 09:39:04,VALID,919.22,VALID,0,VALID,67.6349,VALID,257.644,VALID,23.3265,VALID,350,VALID,0,
2014-08-05, 09:40:04,VALID,919.242,VALID,0,VALID,68.5803,VALID,247.222,VALID,23.307,VALID,321,VALID,0.219141,
2014-08-05, 09:41:04,VALID,919.239,VALID,0,VALID,67.6883,VALID,236.371,VALID,23.268,VALID,311,VALID,0,
2014-08-05, 09:42:04,VALID,919.259,VALID,0,VALID,68.9538,VALID,227.56,VALID,23.2698,VALID,322,VALID,0,
2014-08-05, 09:43:04,VALID,919.264,VALID,0,VALID,68.3897,VALID,221.114,VALID,23.3283,VALID,323,VALID,0,
2014-08-05, 09:44:04,VALID,919.285,VALID,0,VALID,67.8332,VALID,217.998,VALID,23.3461,VALID,323,VALID,0,
2014-08-05, 09:45:04,VALID,919.291,VALID,0,VALID,68.3287,VALID,219.502,VALID,23.3656,VALID,318,VALID,0,
2014-08-05, 09:46:04,VALID,919.289,VALID,0,VALID,68.5574,VALID,227.345,VALID,23.3674,VALID,336,VALID,0,
2014-08-05, 09:47:04,VALID,919.29,VALID,0,VALID,67.4367,VALID,240.668,VALID,23.3869,VALID,336,VALID,0,
2014-08-05, 09:48:04,VALID,919.319,VALID,0,VALID,68.3134,VALID,259.041,VALID,23.3088,VALID,336,VALID,0,
2014-08-05, 09:49:04,VALID,919.316,VALID,0,VALID,68.2829,VALID,277.95,VALID,23.3088,VALID,332,VALID,0,
2014-08-05, 09:50:04,VALID,919.281,VALID,0,VALID,67.7569,VALID,303.306,VALID,23.2502,VALID,309,VALID,0,
2014-08-05, 09:51:04,VALID,919.301,VALID,0,VALID,68.7861,VALID,302.339,VALID,23.2112,VALID,343,VALID,0,
2014-08-05, 09:52:04,VALID,919.298,VALID,0,VALID,69.3502,VALID,293.529,VALID,23.2112,VALID,343,VALID,0,
2014-08-05, 09:53:04,VALID,919.307,VALID,0,VALID,70.0135,VALID,276.231,VALID,23.2094,VALID,342,VALID,0,
2014-08-05, 09:54:04,VALID,919.267,VALID,0,VALID,68.7556,VALID,264.198,VALID,23.1722,VALID,342,VALID,0,
2014-08-05, 09:55:04,VALID,919.323,VALID,0,VALID,68.7861,VALID,257.751,VALID,23.1527,VALID,304,VALID,0,
2014-08-05, 09:56:04,VALID,919.286,VALID,0,VALID,68.5879,VALID,256.032,VALID,23.2307,VALID,304,VALID,0,
2014-08-05, 09:57:04,VALID,919.272,VALID,0,VALID,68.9995,VALID,258.074,VALID,23.1331,VALID,304,VALID,0,
2014-08-05, 09:58:04,VALID,919.281,VALID,0,VALID,69.3578,VALID,263.661,VALID,23.1331,VALID,305,VALID,0,
2014-08-05, 09:59:04,VALID,919.266,VALID,0,VALID,70.1964,VALID,272.578,VALID,23.1331,VALID,305,VALID,0,
2014-08-05, 10:00:04,VALID,919.232,VALID,0,VALID,70.0744,VALID,283.645,VALID,23.2112,VALID,305,VALID,0,
2014-08-05, 10:01:04,VALID,919.228,VALID,0,VALID,68.9995,VALID,296.538,VALID,23.3674,VALID,311,VALID,0,
2014-08-05, 10:02:04,VALID,919.209,VALID,0,VALID,66.7735,VALID,309.86,VALID,23.504,VALID,320,VALID,0,
2014-08-05, 10:03:04,VALID,919.224,VALID,0,VALID,65.7443,VALID,320.819,VALID,23.5412,VALID,326,VALID,0,
2014-08-05, 10:04:04,VALID,919.227,VALID,0,VALID,65.2946,VALID,327.803,VALID,23.6016,VALID,326,VALID,0,
2014-08-05, 10:05:04,VALID,919.196,VALID,0,VALID,65.1192,VALID,331.671,VALID,23.5821,VALID,349,VALID,0,
2014-08-05, 10:06:04,VALID,919.178,VALID,0,VALID,66.1712,VALID,334.249,VALID,23.504,VALID,349,VALID,0,
2014-08-05, 10:07:04,VALID,919.154,VALID,0,VALID,66.7354,VALID,335.754,VALID,23.4632,VALID,349,VALID,0,
2014-08-05, 10:08:04,VALID,919.136,VALID,0,VALID,65.4928,VALID,339.729,VALID,23.4241,VALID,302,VALID,0,
2014-08-05, 10:09:04,VALID,919.147,VALID,0,VALID,66.3008,VALID,349.291,VALID,23.3478,VALID,302,VALID,0,
2014-08-05, 10:10:04,VALID,919.106,VALID,0,VALID,66.2399,VALID,367.019,VALID,23.3851,VALID,303,VALID,0,
2014-08-05, 10:11:04,VALID,919.096,VALID,0,VALID,66.4,VALID,386.036,VALID,23.4454,VALID,302,VALID,0,
2014-08-05, 10:12:04,VALID,919.072,VALID,0,VALID,67.5206,VALID,394.202,VALID,23.3674,VALID,302,VALID,0.105859,
2014-08-05, 10:13:04,VALID,919.051,VALID,0,VALID,66.3161,VALID,407.309,VALID,23.3283,VALID,302,VALID,0.00585938,
2014-08-05, 10:14:04,VALID,919.031,VALID,0,VALID,68.1228,VALID,376.259,VALID,23.2698,VALID,302,VALID,0.00234375,
2014-08-05, 10:15:04,VALID,919.034,VALID,0,VALID,68.6794,VALID,353.481,VALID,23.268,VALID,338,VALID,0,
2014-08-05, 10:16:04,VALID,919.001,VALID,0,VALID,68.5193,VALID,344.564,VALID,23.4437,VALID,338,VALID,0,
2014-08-05, 10:17:04,VALID,918.996,VALID,0,VALID,67.1928,VALID,338.332,VALID,23.5803,VALID,325,VALID,0.387891,
2014-08-05, 10:18:04,VALID,918.996,VALID,0,VALID,67.7798,VALID,333.712,VALID,23.5998,VALID,336,VALID,0.141406,
2014-08-05, 10:19:04,VALID,918.968,VALID,0,VALID,67.2919,VALID,332.853,VALID,23.6193,VALID,356,VALID,0.065625,
2014-08-05, 10:20:04,VALID,918.968,VALID,0,VALID,66.1408,VALID,333.497,VALID,23.6779,VALID,350,VALID,0,
2014-08-05, 10:21:04,VALID,918.952,VALID,0,VALID,66.4762,VALID,334.357,VALID,23.6584,VALID,349,VALID,0,
2014-08-05, 10:22:04,VALID,918.954,VALID,0,VALID,67.33,VALID,334.787,VALID,23.6779,INVALID,360,VALID,0,
2014-08-05, 10:23:04,VALID,918.909,VALID,0,VALID,66.3847,VALID,334.679,VALID,23.6956,VALID,340,VALID,0,
2014-08-05, 10:24:04,VALID,918.912,VALID,0,VALID,65.7901,VALID,333.712,VALID,23.7364,VALID,340,VALID,0,
2014-08-05, 10:25:04,VALID,918.915,VALID,0,VALID,66.0035,VALID,332.423,VALID,23.7755,VALID,337,VALID,0,
2014-08-05, 10:26:04,VALID,918.937,VALID,0,VALID,66.2475,VALID,332.101,VALID,23.7169,VALID,303,VALID,0,
2014-08-05, 10:27:04,VALID,918.912,VALID,0,VALID,66.7583,VALID,333.605,VALID,23.5803,VALID,303,VALID,0,
2014-08-05, 10:28:04,VALID,918.899,VALID,0,VALID,67.4596,VALID,338.01,VALID,23.5022,VALID,303,VALID,0,
2014-08-05, 10:29:04,VALID,918.93,VALID,0,VALID,67.917,VALID,344.779,VALID,23.6193,VALID,303,VALID,0,
2014-08-05, 10:30:04,VALID,918.918,VALID,0,VALID,67.4672,VALID,353.374,VALID,23.5412,VALID,303,VALID,0.0078125,
2014-08-05, 10:31:04,VALID,918.944,VALID,0,VALID,68.9309,VALID,361.862,VALID,23.5004,VALID,303,VALID,0,
2014-08-05, 10:32:04,VALID,918.929,VALID,0,VALID,69.4798,VALID,368.523,VALID,23.6584,VALID,303,VALID,0,
2014-08-05, 10:33:04,VALID,918.922,VALID,0,VALID,68.9843,VALID,373.143,VALID,23.8731,VALID,5,VALID,0.0417969,
2014-08-05, 10:34:04,VALID,918.938,VALID,0,VALID,69.6247,VALID,376.044,VALID,24.0292,VALID,3,VALID,0.0773437,
2014-08-05, 10:35:04,VALID,918.941,VALID,0,VALID,67.269,VALID,378.515,VALID,24.1854,VALID,1,VALID,0,
2014-08-05, 10:36:04,VALID,918.946,VALID,0,VALID,66.6515,VALID,380.986,VALID,24.3611,VALID,2,VALID,0,
2014-08-05, 10:37:04,VALID,918.949,VALID,0,VALID,67.3605,VALID,384.21,VALID,24.4569,VALID,357,VALID,0.00351562,
2014-08-05, 10:38:04,VALID,918.922,VALID,0,VALID,66.6896,VALID,388.615,VALID,24.4392,VALID,22,VALID,0.405859,
2014-08-05, 10:39:04,VALID,918.926,VALID,0,VALID,67.5587,VALID,395.383,VALID,24.3806,VALID,317,VALID,0.0101562,
2014-08-05, 10:40:04,VALID,918.926,VALID,0,VALID,67.7798,VALID,404.409,VALID,24.2812,VALID,280,VALID,0,
2014-08-05, 10:41:04,VALID,918.938,VALID,0,VALID,67.0632,VALID,416.442,VALID,24.3221,VALID,280,VALID,0,
2014-08-05, 10:42:04,VALID,918.919,VALID,0,VALID,68.7327,VALID,427.616,VALID,24.3593,VALID,328,VALID,0.298828,
2014-08-05, 10:43:04,VALID,918.876,VALID,0,VALID,68.3897,VALID,439.112,VALID,24.4002,VALID,350,VALID,0.00117188,
2014-08-05, 10:44:04,VALID,918.874,VALID,0,VALID,68.2677,VALID,448.782,VALID,24.4587,VALID,21,VALID,1.44062,
2014-08-05, 10:45:04,VALID,918.848,VALID,0,VALID,69.556,VALID,456.41,VALID,24.5155,VALID,4,VALID,0.00234375,
2014-08-05, 10:46:04,VALID,918.825,VALID,0,VALID,67.0098,VALID,463.071,VALID,24.535,VALID,18,VALID,0.378906,
2014-08-05, 10:47:04,VALID,918.841,VALID,0,VALID,68.0009,VALID,468.981,VALID,24.5155,VALID,9,VALID,0.0851562,
2014-08-05, 10:48:04,VALID,918.831,VALID,0,VALID,67.5053,VALID,470.485,VALID,24.574,VALID,321,VALID,0,
2014-08-05, 10:49:04,VALID,918.773,VALID,0,VALID,67.0556,VALID,468.014,VALID,24.5935,VALID,10,VALID,0.0171875,
2014-08-05, 10:50:04,VALID,918.802,VALID,0,VALID,67.8941,VALID,469.088,VALID,24.6716,VALID,27,VALID,0.273828,
2014-08-05, 10:51:04,VALID,918.791,VALID,0,VALID,66.4305,VALID,491.006,VALID,24.7711,VALID,29,VALID,0.899609,
2014-08-05, 10:52:04,VALID,918.758,VALID,0,VALID,68.7708,VALID,480.369,VALID,24.6912,VALID,22,VALID,1.31602,
2014-08-05, 10:53:04,VALID,918.813,VALID,0,VALID,66.6134,VALID,474.138,VALID,24.7302,VALID,351,VALID,0.706641,
2014-08-05, 10:54:04,VALID,918.793,VALID,0,VALID,67.1852,VALID,481.551,VALID,24.7107,VALID,19,VALID,1.01602,
2014-08-05, 10:55:04,VALID,918.815,VALID,0,VALID,68.1076,VALID,494.444,VALID,24.5954,VALID,324,VALID,0.0199219,
2014-08-05, 10:56:04,VALID,918.8,VALID,0,VALID,65.508,VALID,519.908,VALID,24.6131,VALID,294,VALID,0.308203,
2014-08-05, 10:57:04,VALID,918.825,VALID,0,VALID,65.0582,VALID,531.941,VALID,24.6131,VALID,273,VALID,0.00585938,